Weather History for LEMD - April, 2013

Change the Weather History Date:

Tuesday, April 16, 2013

  Actual Average Record
Temperature  
Mean Temperature 62 °F -  
Max Temperature 77 °F 67 °F 81 °F (2014)
Min Temperature 48 °F 45 °F 30 °F (1999)
Degree Days  
Heating Degree Days 2    
Growing Degree Days 12 (Base 50)    
Moisture  
Dew Point 49 °F    
Average Humidity 62    
Maximum Humidity 94    
Minimum Humidity 21    
Precipitation  
Precipitation 0.00 in 0.05 in - ()
Sea Level Pressure  
Sea Level Pressure 30.17 in    
Wind  
Wind Speed 4 mph ()    
Max Wind Speed 10 mph    
Max Gust Speed 24 mph    
Visibility 14.7 miles    
Events      
Averages and records for this station are not official NWS values.
T = Trace of Precipitation, MM = Missing Value Source: Averaged Metar Reports

Daily Weather History Graph

Daily Weather History Graph

Search for Another Location

Airport or City:

Trip Planner

Search our weather history database for the weather conditions in past years. The results will help you decide how hot, cold, wet, or windy it might be!

Date:

Astronomy

Apr. 16, 2013 Rise Set
Actual Time 7:34 AM CEST 8:54 PM CEST
Civil Twilight 7:05 AM CEST 9:22 PM CEST
Nautical Twilight 6:31 AM CEST 9:56 PM CEST
Astronomical Twilight 5:56 AM CEST 10:32 PM CEST
Moon 11:39 AM CEST (4/16) 1:41 AM CEST (4/16)
Length of Visible Light 14h 16m
Length of Day
13h 20m
Waxing Crescent, 31% of the Moon is Illuminated
Apr 16
Waxing Crescent
Apr 18
First Quarter
Apr 25
Full
May 2
Last Quarter
May 10
New

Hourly Weather History & Observations

Time (CEST) Temp. Dew Point Humidity Pressure Visibility Wind Dir Wind Speed Gust Speed Precip Events Conditions
12:00 AM 60.8 °F 51.8 °F 72% 30.18 in - SSE 5.8 mph - N/A   Clear
12:30 AM 62.6 °F 51.8 °F 68% 30.18 in - SSE 3.5 mph - N/A   Clear
1:00 AM 60.8 °F 51.8 °F 72% 30.18 in - Variable 2.3 mph - N/A   Clear
1:30 AM 60.8 °F 51.8 °F 72% 30.18 in - Variable 2.3 mph - N/A   Clear
2:00 AM 59 °F 50 °F 65% 30.15 in 9 mi SSE 3.5 mph - -   Clear
2:00 AM 59.0 °F 51.8 °F 77% 30.15 in - South 3.5 mph - N/A   Clear
2:30 AM 57.2 °F 51.8 °F 82% 30.18 in - Variable 1.2 mph - N/A   Clear
3:00 AM 53.6 °F 50.0 °F 88% 30.18 in - North 2.3 mph - N/A   Clear
3:30 AM 53.6 °F 50.0 °F 88% 30.18 in - NNW 4.6 mph - N/A   Clear
4:00 AM 51.8 °F 50.0 °F 94% 30.18 in - NNW 5.8 mph - N/A   Clear
4:30 AM 51.8 °F 50.0 °F 94% 30.18 in - North 3.5 mph - N/A   Clear
5:00 AM 51.8 °F 50.0 °F 94% 30.18 in - NNW 3.5 mph - N/A   Clear
5:30 AM 50.0 °F 48.2 °F 94% 30.18 in - NNE 2.3 mph - N/A   Clear
6:00 AM 50.0 °F 48.2 °F 94% 30.18 in - North 3.5 mph - N/A   Clear
6:30 AM 50.0 °F 48.2 °F 94% 30.18 in - North 4.6 mph - N/A   Clear
7:00 AM 50.0 °F 48.2 °F 94% 30.18 in - North 4.6 mph - N/A   Clear
7:30 AM 48.2 °F 46.4 °F 93% 30.18 in - North 4.6 mph - N/A   Clear
8:00 AM 48 °F 45 °F 84% 30.22 in 12 mi North 2.3 mph - -   Scattered Clouds
8:00 AM 48.2 °F 46.4 °F 93% 30.18 in - North 1.2 mph - N/A   Clear
8:30 AM 50.0 °F 48.2 °F 94% 30.21 in - North 2.3 mph - N/A   Clear
9:00 AM 51.8 °F 50.0 °F 94% 30.21 in - North 2.3 mph - N/A   Clear
9:30 AM 53.6 °F 51.8 °F 94% 30.21 in - Variable 2.3 mph - N/A   Clear
10:00 AM 57.2 °F 51.8 °F 82% 30.21 in - Variable 2.3 mph - N/A   Clear
10:30 AM 60.8 °F 51.8 °F 72% 30.21 in - North 3.5 mph - N/A   Clear
11:00 AM 62.6 °F 51.8 °F 68% 30.21 in - Variable 1.2 mph - N/A   Clear
11:30 AM 66.2 °F 53.6 °F 64% 30.21 in - NNE 2.3 mph - N/A   Clear
12:00 PM 66.2 °F 51.8 °F 60% 30.21 in - South 3.5 mph - N/A   Clear
12:30 PM 69.8 °F 51.8 °F 53% 30.21 in - SSW 1.2 mph - N/A   Clear
1:00 PM 71.6 °F 51.8 °F 50% 30.21 in - SW 2.3 mph - N/A   Clear
1:30 PM 73.4 °F 48.2 °F 41% 30.21 in - South 2.3 mph - N/A   Clear
2:00 PM 74 °F 51 °F 34% 30.11 in 19 mi South 5.8 mph - -   Clear
2:00 PM 73.4 °F 53.6 °F 50% 30.18 in - South 5.8 mph - N/A   Clear
2:30 PM 75.2 °F 50.0 °F 41% 30.18 in - SSW 6.9 mph 19.6 mph N/A   Clear
3:00 PM 75.2 °F 50.0 °F 41% 30.18 in - SSW 6.9 mph 20.7 mph N/A   Clear
3:30 PM 77.0 °F 53.6 °F 44% 30.18 in - South 6.9 mph - N/A   Clear
4:00 PM 77.0 °F 46.4 °F 34% 30.15 in - SW 4.6 mph - N/A   Clear
4:30 PM 77.0 °F 46.4 °F 34% 30.15 in - South 4.6 mph 20.7 mph N/A   Clear
5:00 PM 77.0 °F 44.6 °F 32% 30.15 in - South 4.6 mph 17.3 mph N/A   Clear
5:30 PM 77.0 °F 42.8 °F 29% 30.15 in - South 6.9 mph - N/A   Clear
6:00 PM 78.8 °F 44.6 °F 30% 30.15 in - SSW 8.1 mph 24.2 mph N/A   Clear
6:30 PM 78.8 °F 44.6 °F 30% 30.15 in - SSW 9.2 mph - N/A   Clear
7:00 PM 78.8 °F 44.6 °F 30% 30.15 in - SSW 8.1 mph - N/A   Clear
7:30 PM 77.0 °F 41.0 °F 28% 30.15 in - West 10.4 mph - N/A   Clear
8:00 PM 75 °F 43 °F 21% 30.05 in 19 mi West 8.1 mph - -   Clear
8:00 PM 77.0 °F 44.6 °F 32% 30.12 in - West 8.1 mph 19.6 mph N/A   Clear
8:30 PM 75.2 °F 44.6 °F 34% 30.12 in - WSW 6.9 mph - N/A   Clear
9:00 PM 73.4 °F 44.6 °F 36% 30.15 in - West 5.8 mph - N/A   Clear
9:30 PM 73.4 °F 48.2 °F 41% 30.15 in - West 3.5 mph 15.0 mph N/A   Clear
10:00 PM 66.2 °F 48.2 °F 52% 30.15 in - NE 3.5 mph - N/A   Clear
10:30 PM 66.2 °F 48.2 °F 52% 30.15 in - NE 2.3 mph - N/A   Clear
11:00 PM 64.4 °F 48.2 °F 56% 30.18 in - Variable 1.2 mph - N/A   Clear
11:30 PM 62.6 °F 48.2 °F 59% 30.18 in - Variable 2.3 mph - N/A   Clear